TIME,DELAY(SENSOR),PRES,T(CTD),SAL,OXYGEN,RAWTEMP,T(OPTODE),TCPHASE,FLUOR,BETA(BETA700),BETA(BETA412),BETA(BETA440),CDOM,C(CSC),ED(ED412.40),ED(ED444.00),ED(ED489.70),ED(ED554.30),LU(LU411.80),LU(LU443.40),LU(LU489.60),LU(LU554.10),COMP,TILTX,TILTX(TILTY),CHECK
1383514405,5808,496.8800048828125000,6.6255998611450195,34.1467018127441400,72.5488891601562500,599.1035156250000000,6.6132240295410160,49.7885208129882800,51,103,83,79,77,15234,2147745161,2147422628,2148007990,2147874139,2147629613,2147067200,2148250368,2147198354,1628,4,13,46122
1383514515,5810,486.1499938964844000,6.7774000167846680,34.1391983032226560,76.4933166503906200,594.7077026367188000,6.7550950050354000,49.2476310729980500,52,103,86,78,78,15235,2147742692,2147423195,2148010706,2147872064,2147627117,2147069997,2148248082,2147201581,1676,3,13,23370
1383514627,5808,475.5899963378906000,6.8906002044677730,34.1333007812500000,80.7198333740234400,591.1904907226562000,6.8684787750244140,48.6966781616210940,52,103,87,81,76,15234,2147746422,2147419501,2148008018,2147871040,2147627968,2147074953,2148245184,2147202816,546,4,12,21534
1383514748,5806,464.8299865722656000,7.0262999534606930,34.1295013427734400,85.5154037475586000,586.4030151367188000,7.0226311683654785,48.0701408386230500,51,105,88,78,76,15234,2147745325,2147420928,2148011638,2147868635,2147625874,2147072356,2148247286,2147201334,3204,3,13,1108
1383514894,5804,453.6700134277344000,7.2473998069763180,34.1232986450195300,93.5821609497070300,579.8826293945312000,7.2322368621826170,47.0678215026855500,51,106,85,80,76,15234,2147744246,2147421421,2148009490,2147871232,2147624082,2147071698,2148246034,2147202523,2347,4,13,6493
1383515059,5808,443.4599914550781000,7.4917001724243160,34.1095008850097660,104.9638977050781200,572.6591186523438000,7.4640030860900880,45.7462615966796900,51,102,89,80,74,15236,2147743405,2147422006,2148005540,2147872521,2147626624,2147079881,2148242779,2147202102,2328,4,13,54890
1383515297,5808,430.1400146484375000,7.8782000541687010,34.0971984863281250,125.0504989624023400,560.3220214843750000,7.8587741851806640,43.5819091796875000,50,102,86,79,74,15232,2147741074,2147421019,2148007524,2147873654,2147622866,2147078939,2148240841,2147202358,935,3,13,11492
1383515453,5808,418.7399902343750000,8.1466999053955080,34.0891990661621100,139.2257995605468800,551.9129028320312000,8.1271076202392580,42.1730003356933600,51,103,84,79,73,15233,2147741165,2147420836,2148006354,2147872192,2147624201,2147082294,2148241115,2147202386,2671,4,13,8870
1383515582,5807,406.7900085449219000,8.4612998962402340,34.0942001342773440,145.0827941894531200,540.4221801757812000,8.4928321838378900,41.4795188903808600,50,104,87,80,73,15234,2147734089,2147424594,2148004425,2147872822,2147621906,2147082358,2148234898,2147201627,1458,4,13,34456
1383515682,5808,395.4100036621094000,8.8884000778198240,34.1026000976562500,153.1062927246093800,528.2631225585938000,8.8786811828613280,40.6130714416503900,50,106,86,81,73,15233,2147737545,2147423488,2148005129,2147872109,2147619062,2147082989,2148228233,2147203940,870,3,12,16277
1383515770,5804,384.7399902343750000,9.1571998596191400,34.1087989807128900,158.9039001464843800,519.7127075195312000,9.1493320465087890,40.0094795227050800,49,106,88,81,73,15232,2147739483,2147424073,2148003538,2147873289,2147617124,2147087140,2148232630,2147200182,3101,3,13,62199
1383515899,5806,370.6400146484375000,9.6906003952026370,34.1142005920410160,171.4360046386718800,502.8164978027344000,9.6825647354125980,38.7817382812500000,50,107,86,79,71,15235,2147738377,2147422729,2148003794,2147873069,2147615122,2147090797,2148225974,2147206116,2845,3,13,51218
1383516020,5811,361.0100097656250000,9.9891996383667000,34.1274986267089840,189.7039031982422000,493.4082946777344000,9.9786043167114260,37.3668785095214840,50,104,86,78,71,15239,2147736676,2147423414,2148003227,2147873974,2147612818,2147092836,2148222601,2147204480,1489,3,13,60306
1383516199,5810,350.2699890136719000,10.3868999481201170,34.1436996459960940,200.0563049316406200,480.4374084472656000,10.3857698440551760,36.4915008544921900,49,104,86,80,69,15232,2147736822,2147422180,2148007762,2147872987,2147610907,2147095707,2148224082,2147203474,3016,3,13,19883
1383516408,5807,339.1000061035156000,10.9575996398925780,34.1702003479003900,211.8150024414062500,462.4281005859375000,10.9492998123168950,35.4916191101074200,48,103,86,80,69,15234,2147729536,2147421741,2148005714,2147873115,2147606025,2147100928,2148220324,2147205824,1216,3,13,57432
1383516571,5806,326.0799865722656000,11.3254995346069340,34.1904983520507800,217.5225067138672000,450.8851013183594000,11.3094596862792970,34.9799003601074200,49,104,86,81,68,15234,2147727680,2147422546,2148008009,2147874240,2147607021,2147112365,2148224813,2147205659,2730,3,13,19664
1383516681,5809,314.4700012207031000,11.6429996490478520,34.1994018554687500,217.4584960937500000,439.8843994140625000,11.6519899368286130,34.8069381713867200,48,102,88,79,66,15233,2147726692,2147427520,2148013979,2147872438,2147602816,2147108534,2148218413,2147204790,2970,3,13,1393
1383516783,5810,304.5599975585937500,12.0060997009277340,34.2224006652832000,208.7955017089843800,428.1982116699219000,12.0151596069335940,35.1151618957519500,47,104,85,80,68,15232,2147724352,2147427648,2148017499,2147873828,2147601106,2147118162,2148225929,2147206564,3037,3,13,30171
1383516904,5807,293.7300109863281000,12.5026998519897460,34.2547988891601560,207.8683929443359400,411.4324951171875000,12.5349597930908200,34.9034614562988300,49,104,86,80,68,15235,2147721325,2147429001,2148024091,2147871716,2147599067,2147114368,2148223670,2147205275,2119,3,13,57345
1383517047,5809,283.2399902343750000,12.9928998947143550,34.2942008972168000,212.8258972167968800,395.5163879394531000,13.0271997451782230,34.3696403503418000,48,104,86,80,67,15233,2147723748,2147435556,2148027108,2147873078,2147593398,2147126235,2148220626,2147210358,2052,3,14,26819
1383517214,5808,272.0899963378906000,13.8147001266479500,34.3754997253418000,211.3262939453125000,369.3872985839844000,13.8330097198486330,34.0539588928222660,48,104,85,79,67,15233,2147720320,2147434203,2148043309,2147875693,2147590784,2147127533,2148226102,2147211712,914,3,14,63358
1383517368,5811,260.2600097656250000,14.3906002044677730,34.4221992492675800,212.6228942871093800,352.0152893066406000,14.3673696517944340,33.7182502746582000,50,108,84,80,66,15227,2147719689,2147442779,2148056310,2147872594,2147587465,2147136329,2148226532,2147212644,488,3,13,24503
1383517497,5809,249.3699951171875000,14.6501998901367190,34.4495010375976560,217.0314025878906200,341.8698120117187500,14.6789903640747070,33.3221092224121100,49,104,85,80,65,15226,2147717750,2147450148,2148086473,2147869302,2147583040,2147147181,2148236845,2147213257,3197,3,14,49705
1383517623,5809,237.9400024414062500,15.7180004119873050,34.5345993041992200,216.8267059326172000,307.6943969726562500,15.7266702651977540,32.8320884704589840,49,105,83,79,66,15224,2147716224,2147466349,2148122596,2147873755,2147583597,2147159478,2148256329,2147211949,3355,2,13,40467
1383517769,5808,227.5099945068359400,16.5718994140625000,34.6394004821777340,217.7991943359375000,278.8955993652344000,16.6076602935791000,32.3658790588378900,50,105,86,81,65,15217,2147712493,2147446875,2148050889,2147876544,2147577526,2147159972,2148215826,2147216000,1268,2,14,22177
1383517912,5807,216.6600036621093800,17.4440002441406250,34.7351989746093750,217.1463928222656200,252.0682067871093800,17.4273700714111330,32.0222587585449200,50,105,88,81,64,15216,2147720667,2147527213,2148257133,2147874834,2147579766,2147204946,2148312950,2147218779,184,2,14,57681
1383518066,5808,204.0899963378906200,18.1348991394042970,34.8296012878418000,216.2425994873047000,228.9965057373047000,18.1319808959960940,31.7496395111084000,52,107,83,80,64,15206,2147733083,2147585965,2148377216,2147874084,2147577865,2147248192,2148364918,2147223670,2652,3,14,22476
1383518151,5810,196.3800048828125000,18.4522991180419920,34.8751983642578100,215.6410064697265600,218.3224945068359400,18.4579505920410160,31.6347103118896500,55,106,85,80,65,15207,2147748571,2147641590,2148482907,2147873600,2147582262,2147284891,2148419108,2147227821,3310,2,15,23419
1383518231,5810,189.2500000000000000,18.7812995910644530,34.9227981567382800,215.7975006103515600,207.4201965332031200,18.7909202575683600,31.4767608642578120,57,107,85,80,62,15206,2147767597,2147718006,2148631378,2147872402,2147591177,2147328365,2148483803,2147232749,2471,1,14,33231
1383518286,5809,184.7700042724609400,19.1133995056152340,34.9673995971679700,216.2915039062500000,197.3690948486328000,19.0979595184326170,31.3131999969482420,56,111,83,81,62,15204,2147785462,2147777956,2148732361,2147872457,2147593426,2147365778,2148531940,2147240164,1545,2,14,18063
1383518368,5807,179.0099945068359400,19.3647003173828120,35.0097999572753900,217.4635925292968800,188.4985961914062500,19.3689899444580080,31.1314792633056640,59,108,89,80,63,15204,2147776969,2147692278,2148498230,2147873609,2147591853,2147314980,2148414418,2147234048,777,2,15,36298
1383518423,5809,175.2599945068359400,19.6490001678466800,35.0511016845703100,217.4770050048828000,178.4640960693359400,19.6756992340087900,30.9950695037841800,59,107,86,81,62,15201,2147843995,2147930934,2149010157,2147875766,2147618450,2147469257,2148662939,2147246482,693,2,14,11867
1383518489,5810,170.7700042724609400,20.0058002471923830,35.0983009338378900,218.1520996093750000,167.7516021728515600,20.0032691955566400,30.8162097930908200,64,109,85,81,62,15198,2147878326,2148013403,2149145737,2147876150,2147633042,2147517220,2148725321,2147254674,3135,2,14,13337
1383518544,5810,166.9900054931640600,20.1182994842529300,35.1146011352539060,218.4409942626953000,163.9828948974609400,20.1185607910156250,30.7508201599121100,68,110,86,80,61,15195,2147920000,2148095296,2149273984,2147877824,2147647369,2147565321,2148784630,2147260845,2142,2,15,56973
1383518599,5807,163.1399993896484400,20.2036991119384770,35.1258010864257800,218.6963958740234400,161.0390014648437500,20.2086296081542970,30.6983299255371100,69,109,84,80,61,15189,2147971465,2148217398,2149487680,2147878153,2147670537,2147635520,2148877942,2147264054,1481,2,15,42634
1383518686,5810,157.6100006103515600,20.5981006622314450,35.1614990234375000,217.2415924072265600,148.9465026855468800,20.5787696838378900,30.6131706237792970,78,112,87,82,62,15185,2148067136,2148415414,2149802038,2147878564,2147708662,2147744237,2149014573,2147276708,970,2,15,4133
1383518765,5808,153.5899963378906200,20.7364006042480470,35.1822013854980500,217.5334930419922000,145.0010070800781200,20.6996002197265620,30.5459594726562500,79,114,88,79,61,15172,2148157522,2148587565,2150078637,2147882569,2147743497,2147829174,2149129024,2147285979,523,2,15,56521
1383518853,5807,149.4400024414062500,21.1159000396728500,35.2400016784668000,220.3934936523437500,132.8498992919922000,21.0719604492187500,30.2383193969726560,85,115,88,81,60,15169,2148262445,2148768137,2150378962,2147885650,2147781750,2147922166,2149246317,2147296868,266,2,15,61594
1383518941,5805,145.5299987792968800,21.1893997192382800,35.2354011535644500,222.4526977539062500,128.9360961914062500,21.1919708251953120,30.0830802917480470,93,114,87,81,61,15166,2148346624,2148906669,2150587291,2147887414,2147818468,2147991597,2149343698,2147302400,3491,2,15,23657
1383519031,5809,141.9299926757812500,21.2942008972167970,35.1884002685546900,222.3764038085937500,124.9442977905273400,21.3144092559814450,30.0345802307128900,99,115,87,82,61,15157,2148468288,2149148132,2151026907,2147892955,2147858523,2148097901,2149494966,2147314870,2500,1,16,34930
1383519163,5810,138.3699951171875000,21.4109992980957030,35.1323013305664060,213.9951934814453000,123.5376968383789000,21.3575592041015620,30.4471893310546880,113,124,90,82,61,15142,2148603666,2149382473,2151426221,2147896237,2147903670,2148184118,2149630994,2147327424,1960,2,15,38836
1383519380,5809,133.7899932861328000,21.5464000701904300,35.1473007202148440,213.0885009765625000,117.5385971069336000,21.5416698455810550,30.4165306091308600,117,122,85,82,60,15131,2148998793,2150013549,2152344219,2147909046,2148029888,2148416000,2149947913,2147356480,1826,2,15,5054
1383519479,5806,129.9199981689453000,21.8215007781982420,35.2145004272460940,218.7145996093750000,108.8087997436523400,21.8097801208496100,30.0098896026611330,115,120,88,80,61,15122,2149264868,2150363245,2152780242,2147912713,2148114377,2148537161,2150066852,2147365878,1028,2,15,21059
1383519578,5805,125.5800018310546900,21.9146995544433600,35.2066993713378900,220.2456054687500000,106.0261993408203100,21.8952903747558600,29.8959102630615230,119,121,89,82,63,15123,2149917577,2151348589,2154200804,2147929828,2148345408,2148969014,2150637805,2147416228,222,1,15,32626
1383519665,5808,121.3199996948242200,21.9295005798339840,35.1852989196777340,219.6367950439453000,104.1812973022461000,21.9519996643066400,29.9028797149658200,125,123,89,81,61,15113,2150685430,2152399058,2155548196,2147952877,2148588873,2149361243,2151109339,2147463094,2937,1,16,25950
1383519734,5809,117.4400024414062500,22.1110992431640620,35.1952018737793000,220.5532989501953000,99.2106628417968800,22.1048297882080080,29.7920494079589840,135,124,88,83,61,15112,2151470802,2153385837,2156737124,2147974765,2148844406,2149745444,2151561462,2147507218,3018,2,16,64867
1383519811,5807,113.3300018310546900,22.5074996948242200,35.2377014160156250,221.7377014160156200,86.4232864379882800,22.4984092712402340,29.5675907135009770,152,123,88,83,60,15089,2152554331,2154803446,2158430985,2148007296,2149215168,2150276361,2152135268,2147565641,2109,1,15,52480
1383519899,5808,109.4499969482421900,22.6100006103515620,35.2626991271972660,227.7279052734375000,83.0643386840820300,22.6018905639648440,29.2303504943847660,144,121,87,83,60,15091,2153990098,2156714404,2160797202,2148047241,2149712713,2151013568,2152983533,2147644525,1105,2,15,11437
1383519978,5809,105.7300033569336000,22.6326999664306640,35.2619018554687500,230.3811950683593800,82.1990737915039000,22.6285495758056640,29.0921802520751950,138,121,86,82,61,15094,2155585792,2158584393,2162827492,2148095040,2150269257,2151763044,2153755072,2147723904,706,2,15,27657
1383520066,5811,101.6999969482421900,22.6539001464843750,35.2322006225585940,229.7079925537109400,81.4194717407226600,22.6525707244873050,29.1143302917480470,156,125,90,84,61,15083,2158546075,2162193362,2166797504,2148188105,2151246253,2153080649,2155110144,2147865298,1114,1,15,7031
1383520143,5811,98.5500030517578100,22.8360004425048830,35.2332000732421900,229.0480041503906200,75.7680206298828100,22.8268108367919920,29.0739097595214840,154,123,90,82,60,15072,2161119698,2165049499,2169771913,2148263844,2152102774,2154216448,2156344813,2147989769,66,1,15,2111
1383520198,5807,96.6600036621093800,22.8794002532959000,35.2374000549316400,229.8668060302734400,74.2567062377929700,22.8734302520751950,29.0154991149902340,139,124,90,85,60,15083,2162548882,2166503350,2171032585,2148312438,2152603008,2154781513,2156856694,2148049965,3079,1,16,29471
1383520253,5805,95.1800003051757800,22.8927001953125000,35.2375984191894500,230.3007049560547000,73.5579528808593800,22.8949909210205080,28.9860897064209000,134,121,89,83,60,15084,2164366564,2168536521,2172941357,2148368429,2153270208,2155619986,2157682322,2148132059,2723,1,16,34871
1383520340,5805,92.5400009155273400,23.1082000732421880,35.2555999755859400,231.3712005615234400,69.5381927490234400,23.0190296173095700,28.8843193054199220,108,122,86,84,59,15087,2153399680,2153294637,2153477750,2147969993,2149581952,2149631680,2150367003,2147445458,2063,1,15,3600
1383520397,5806,90.4599990844726600,23.2826004028320300,35.2779006958007800,233.0346984863281200,61.2210311889648440,23.2758998870849600,28.7013893127441400,104,120,91,84,60,15087,2154966336,2154831177,2154854436,2147999040,2150244480,2150396608,2151055049,2147515062,1171,1,16,50365
1383520452,5805,88.5500030517578100,23.4032001495361330,35.2928009033203100,235.4463958740234400,56.5447883605957000,23.4204502105712900,28.5306205749511720,101,121,89,84,59,15092,2177053056,2181221357,2184187474,2148743661,2158482752,2161676717,2162867035,2148690889,431,1,16,34647
1383520507,5810,86.4800033569336000,23.6625003814697270,35.3116989135742200,239.1416015625000000,52.0024108886718750,23.5609607696533200,28.3050003051757800,88,123,91,83,58,15090,2170549577,2172447296,2173409225,2148490377,2156409508,2158337755,2158884608,2148300626,815,2,15,52527
1383520562,5806,84.2900009155273400,23.8337993621826170,35.3217010498046900,240.6083068847656200,42.9849090576171900,23.8401794433593750,28.1267890930175780,90,122,88,84,58,15090,2178595520,2181518875,2182736256,2148838747,2159558729,2162003309,2162048640,2148660260,1373,2,16,40214
1383520649,5807,80.7900009155273400,24.4715003967285160,35.3414993286132800,243.5910949707031200,24.6846694946289060,24.4080390930175780,27.7681503295898440,82,127,90,84,58,15102,2189818358,2193667977,2195003629,2149276562,2165077979,2168623213,2168316672,2149295597,2409,1,16,4430
1383520707,5809,79.1500015258789000,24.5426006317138670,35.3484001159668000,245.7893981933593800,21.1451396942138670,24.5180702209472660,27.6287403106689450,78,122,90,85,57,15096,2191206546,2194626358,2195761691,2149439661,2166077997,2169598134,2169017444,2149368566,2790,1,16,18663
1383520806,5808,77.5699996948242200,24.6096992492675780,35.3488006591796900,247.2720947265625000,18.5773792266845700,24.5979404449462900,27.5330009460449220,81,129,89,85,58,15095,2196758619,2200586550,2201313709,2149735506,2169258048,2173006381,2171700406,2149670400,2123,1,16,50886
1383520916,5808,75.4700012207031200,24.8265991210937500,35.3563995361328100,247.6750030517578000,14.6406202316284180,24.7204494476318360,27.4676704406738280,82,122,89,84,59,15080,2201982930,2205609755,2205677778,2149975817,2172480713,2176211721,2173855652,2149903168,1365,1,16,17119
1383521003,5812,73.6399993896484400,24.8521995544433600,35.3592987060546900,247.6882934570312500,10.3687896728515620,24.8534908294677730,27.4147796630859380,75,123,91,84,58,15088,2204794066,2207509083,2206497188,2150175067,2175423926,2178852681,2175513636,2150089664,1502,1,16,45935
1383521060,5809,72.3399963378906200,25.1534996032714840,35.3647003173828100,247.7409973144531200,4.6731858253479000,25.0310306549072270,27.3429603576660160,74,122,93,85,56,15084,2210099410,2212298185,2210385408,2150402953,2178825590,2182078189,2177715849,2150308571,1695,1,16,56394
1383521326,5808,70.0000000000000000,25.7507991790771500,35.3918991088867200,247.3583068847656200,-17.3380107879638670,25.7189598083496100,27.0915298461914060,67,122,89,85,57,15089,2217351067,2217930084,2215309897,2150880795,2184950418,2187736704,2181477321,2150720566,3038,2,16,55363
1383521381,5807,67.7500000000000000,26.1611003875732420,35.3998985290527340,245.8560943603515600,-28.3192100524902340,26.0632896423339840,27.0226402282714840,68,121,92,85,56,15079,2222586249,2222388096,2219038930,2151442752,2189196324,2191481243,2183912521,2151018002,2986,2,16,3463
1383521436,5808,65.9199981689453100,26.2430992126464840,35.4227981567382800,245.4978942871093800,-31.2130908966064450,26.1541690826416000,27.0029602050781250,68,122,90,85,56,15085,2228178797,2227672941,2224116141,2151751670,2193674358,2196030107,2187320722,2151414363,3419,1,16,55568
1383521524,5809,64.7200012207031200,26.3614997863769530,35.4143981933593750,244.7286071777343800,-34.5638885498046900,26.2594604492187500,26.9953193664550780,69,122,90,83,55,15076,2231113024,2230381385,2226356379,2152046125,2195107291,2197388635,2188285659,2151594989,89,1,15,32983
1383521746,5809,62.7799987792968750,26.9752998352050780,35.4370002746582000,236.0977935791015600,-57.1242599487304700,26.9704093933105470,27.0994091033935550,67,123,89,85,54,15069,2235042185,2233469696,2228552237,2152485586,2200905106,2202775378,2191945316,2151951853,3526,1,16,54684
1383521823,5807,61.5200004577636700,26.9776992797851560,35.4398994445800800,235.1058044433593800,-57.8674697875976560,26.9938907623291000,27.1347293853759770,66,121,91,86,54,15061,2237519323,2236197897,2231391058,2152962989,2203383213,2205029513,2193453101,2152165705,3205,1,16,30327
1383521968,5812,59.4300003051757800,27.0722007751464840,35.4473991394043000,232.4282989501953000,-60.4491004943847660,27.0754909515380860,27.2239704132080080,63,128,90,86,58,15060,2243348690,2241352384,2234974345,2153481700,2212038345,2211822994,2196963684,2152541833,2886,1,16,10726
1383522067,5809,57.1599998474121100,27.1534996032714840,35.4533996582031250,230.3350982666015600,-62.9080810546875000,27.1532707214355470,27.2894001007080080,62,126,93,86,57,15053,2256589430,2254666432,2247775003,2155091574,2226438939,2224843291,2205651181,2153563163,3094,1,16,36609
1383522133,5804,54.8499984741210940,27.2147006988525400,35.4594993591308600,229.6898040771484400,-64.7448196411132800,27.2113895416259770,27.2965106964111330,63,127,91,86,55,15057,2263541613,2261541668,2253622610,2156491547,2238247305,2234544978,2211366336,2154302098,2644,1,16,11736
1383522188,5807,52.5200004577636700,27.2441005706787100,35.4583015441894500,229.4349060058593800,-65.8504486083984400,27.2463893890380860,27.2948207855224600,61,127,92,85,55,15050,2268810212,2267122340,2258930788,2158056155,2245445010,2239981467,2214306230,2154852553,2487,1,16,27597
1383522275,5807,48.5099983215332000,27.3528003692626950,35.3688011169433600,227.5962066650390600,-68.8872222900390600,27.3425693511962900,27.3427200317382800,60,122,91,86,56,15059,2286839085,2285833517,2276586624,2161683556,2272876361,2264742445,2230619748,2157058642,2204,1,16,28496
1383522332,5810,46.2299995422363300,27.3997001647949220,35.3410987854003900,226.4338989257812500,-70.5006179809570300,27.3936901092529300,27.3769092559814450,58,120,89,85,54,15065,2199981211,2192353353,2183849362,2151372178,2198703305,2189083922,2173743926,2150161782,2576,1,16,15157
1383522387,5802,44.4300003051757800,27.4172000885009770,35.3314018249511700,225.5493927001953000,-71.3180770874023400,27.4196090698242200,27.4082508087158200,59,120,89,83,55,15063,2284331529,2282262089,2273546139,2163489033,2280717339,2269115666,2231889728,2157513142,2697,0,17,50365
1383522442,5810,42.8400001525878900,27.5056991577148440,35.3175010681152340,224.8171997070312500,-73.7761764526367200,27.4975605010986330,27.4124908447265620,58,118,89,84,52,15072,2308778002,2306613129,2296911286,2168194221,2312520548,2298369481,2251760073,2159825718,2848,0,17,59105
1383522508,5809,41.2299995422363300,27.6490001678466800,35.3241996765136700,223.6011962890625000,-78.8312530517578100,27.6580104827880860,27.4078102111816400,54,117,88,83,55,15073,2314390134,2312644617,2304069220,2170665883,2320125833,2303946989,2254474834,2160625792,2989,0,17,31485
1383522595,5809,38.9799995422363300,27.6986007690429700,35.3251991271972660,223.3180999755859400,-80.3229904174804700,27.7053909301757800,27.4030208587646500,53,118,90,84,55,15079,2321719908,2319767954,2311452928,2174132452,2334965449,2315162340,2260104713,2161659510,3032,0,16,58320
1383522652,5809,36.3600006103515600,27.7005996704101560,35.3247985839843750,223.1658020019531200,-80.4115066528320300,27.7082099914550780,27.4091205596923830,53,117,88,83,56,15079,2333599908,2333549513,2327109074,2181980928,2361599771,2339498532,2276597494,2164600576,2776,1,16,58177
1383522707,5817,33.5400009155273440,27.6996002197265620,35.3254013061523440,223.2389068603515600,-80.3832778930664000,27.7073097229003900,27.4060096740722660,55,116,90,84,56,15085,2330709321,2328293120,2320416886,2184503945,2377490651,2351363748,2282113325,2165355638,2719,1,16,39869
1383522762,5816,30.5499992370605470,27.7014007568359380,35.3250999450683600,223.1802062988281200,-80.5817489624023400,27.7136192321777340,27.4062995910644530,52,116,89,84,53,15087,2360964617,2362846445,2358948672,2199754240,2400873673,2371227693,2294452827,2169078061,2683,1,16,30903